Regional Weather Roundup
Issued by NWS Jackson, KY

Home | Current Version | Previous Version | Text Only | Print | Product List | Glossary Off
Versions: 1 2 3 4 5 6 7 8 9 10 11 12 13 14 15 16 17 18 19 20 21 22 23 24 25 26 27

000
ASUS43 KJKL 161410
RWRJKL

EAST KENTUCKY HOURLY WEATHER ROUNDUP
NATIONAL WEATHER SERVICE JACKSON KY
900 AM EST SAT DEC 16 2017

NOTE: "FAIR" INDICATES FEW OR NO CLOUDS BELOW 12,000 FEET WITH
NO SIGNIFICANT WEATHER AND/OR OBSTRUCTIONS TO VISIBILITY.

* THESE REPORTS ARE NOT UNDER NWS QUALITY CONTROL AND MAY NOT
  REPORT WEATHER SUCH AS PRECIPITATION AND FOG.

KYZ079-080-083-085-087-088-110-112-115-119-120-161500
...EASTERN KENTUCKY...

CITY           SKY/WX    TMP DP  RH WIND       PRES   REMARKS
JACKSON        SUNNY     32  22  66 SW6       30.17S WCI  26
LONDON         SUNNY     31  22  69 S3        30.21R
SOMERSET*      SUNNY     32  23  69 S7        30.22F WCI  26
MONTICELLO*    SUNNY     33  31  92 E5        30.23S WCI  29
WILLIAMSBURG*  SUNNY     30  25  80 SE6       30.22S WCI  24
MIDDLESBORO*   SUNNY     24  22  92 CALM      30.26S
HARLAN APT*    MOSUNNY   27  23  86 CALM      30.23R
PIKE CO APT*   PTSUNNY   32  22  68 S5        30.18S WCI  27
BIG SANDY APT* SUNNY     33  23  65 CALM      30.17S
MOREHEAD APT*  SUNNY     34  23  64 SW12G21   30.16S WCI  25
$$

KYZ035-036-041-042-044-050-067-078-099-161500
...CENTRAL KENTUCKY...

CITY           SKY/WX    TMP DP  RH WIND       PRES   REMARKS
MT STERLING*   SUNNY     32  27  80 SW12G17   30.16F WCI  23
FLEMING/MASON* SUNNY     33  25  72 SW18      30.13F WCI  22
DANVILLE*      SUNNY     32  25  74 SW9       30.19R WCI  24
LEXINGTON      SUNNY     32  24  72 S12       30.14S WCI  23
FRANKFORT      SUNNY     33  23  66 S13       30.13S WCI  24
LOUISVILLE     CLEAR     35  26  69 S9        30.14S WCI  28
LEBANON*         N/A     32  25  74 S12       30.17S WCI  23
GLASGOW*       SUNNY     32  26  77 S7        30.19F WCI  26
BOWLING GREEN  SUNNY     33  27  78 S10       30.20S WCI  25
$$

KYZ091>093-OHZ055-061-077-WVZ005-015-034-035-042-161500
...SOUTHERN OHIO/WEST VIRGINIA...

CITY           SKY/WX    TMP DP  RH WIND       PRES   REMARKS
COVINGTON      CLEAR     33  26  75 SW14G21   30.06F WCI  23
COLUMBUS       CLOUDY    35  25  66 SW9       30.05R WCI  28
DAYTON         CLOUDY    33  27  78 SW16      30.03R WCI  23
WILMINGTON     MOSUNNY   33  26  75 SW14      30.04S WCI  23
HUNTINGTON     SUNNY     33  21  61 S8        30.14F WCI  26
CHARLESTON     MOSUNNY   36  22  56 SW9       30.15F WCI  29
PINEVILLE*       N/A     25  22  89 MISG      30.22S
BECKLEY        MOSUNNY   27  19  72 SW7       30.12R WCI  19
BLUEFIELD      SUNNY     25  18  74 SW9       30.13R WCI  15
LOGAN CO APT*    N/A     32  23  69 CALM      30.14F
$$

VAZ002-007-008-TNZ017-027-036-066-071-161500
...SOUTHWEST VIRGINIA/EAST TENNESSEE...

CITY           SKY/WX    TMP DP  RH WIND       PRES   REMARKS
WISE*          MOSUNNY   28  23  80 SW9       30.18R WCI  20
JONESVILLE*      N/A     25  23  93 CALM      30.27S
ABINGDON*      CLOUDY    28  25  88 W3        30.22R
BRISTOL        CLOUDY    27  25  92 CALM      30.25S FOG
MORRISTOWN*    SUNNY     28  25  86 CALM      30.24F
SEVIERVILLE*   SUNNY     23  21  93 CALM      30.27S
KNOXVILLE      CLOUDY    26  25  96 CALM      30.27R
LAFOLLETTE*    SUNNY     25  23  93 CALM      30.29S
OAK RIDGE      CLOUDY    27  23  85 CALM      30.28S
CROSSVILLE     CLOUDY    27  22  81 CALM      30.22R
NASHVILLE      CLOUDY    33  26  75 S9        30.24R WCI  25
$$

...KEY TO REMARKS...
VSB - VISIBILITY IN MILES
WCI - WIND CHILL INDEX
HX  - HEAT INDEX

$$




USA.gov is the U.S. government's official web portal to all federal, state and local government web resources and services.